SCP
0 0 0 0 0 0 0 0 0 0 0 0 0 0 1 1 1 1 1 2 2 2 2 2 2 2 2 3 3 3 3 3 4 5 5 4 3 2 1 1 1 1 1 1
0 0 0 0 0 0 0 0 0 0 0 0 0 0 1 1 1 1 1 2 2 2 2 2 2 2 2 3 3 3 3 3 3 4 3 3 3 2 1 1 1 1 1 1
0 0 0 0 0 0 0 0 0 0 0 0 0 0 1 1 1 1 1 1 2 2 2 2 2 2 2 3 3 3 3 3 3 2 2 2 2 2 1 1 1 1 1 1
0 0 0 0 0 0 0 0 0 0 0 0 0 0 1 1 1 1 1 1 2 2 2 2 2 2 2 3 3 3 3 3 3 2 2 2 2 1 1 1 2 2 1 1
0 0 0 0 0 0 0 0 0 0 0 0 0 0 0 1 1 1 1 1 1 2 2 3 3 2 2 2 3 3 3 3 3 3 2 2 2 1 1 1 1 2 2 1
0 0 0 0 0 0 0 0 0 0 0 0 0 0 0 1 1 1 1 1 1 2 3 3 3 3 2 2 2 2 2 2 2 2 2 2 2 2 2 1 1 1 2 2
0 0 0 0 0 0 0 0 0 0 0 0 0 0 0 1 1 1 1 1 1 2 2 3 3 3 2 2 2 2 2 2 2 2 2 2 2 2 2 1 1 1 1 2
0 0 0 0 0 0 0 0 0 0 0 0 0 0 0 1 1 1 1 1 2 2 2 3 3 2 2 2 2 2 2 2 2 2 2 2 2 2 1 1 1 1 1 1
0 0 0 0 0 0 0 0 0 0 0 0 0 0 0 1 1 1 1 1 2 2 2 2 2 2 2 2 2 2 2 2 2 1 1 1 2 1 1 1 1 1 1 1
0 0 0 0 0 0 0 0 0 0 0 0 0 0 0 0 1 1 1 1 2 2 2 2 2 2 2 3 2 2 1 1 1 1 1 1 1 1 1 1 1 1 1 1
0 0 0 0 0 0 0 0 0 0 0 0 0 0 0 0 1 1 1 1 2 2 3 3 3 3 3 3 2 2 2 2 2 2 2 1 1 1 1 1 1 1 1 1
0 0 0 0 0 0 0 0 0 0 0 0 0 0 0 0 1 1 2 2 2 2 3 3 3 3 3 3 2 2 2 2 3 3 3 2 1 1 1 2 2 1 1 1
0 0 0 0 0 0 0 0 0 0 0 0 0 0 0 0 1 1 2 2 2 2 2 3 3 3 3 2 2 3 2 2 3 4 4 3 2 2 2 2 2 1 1 1
0 0 0 0 0 0 0 0 0 0 0 0 0 0 0 1 1 2 2 2 2 2 2 2 2 2 2 2 2 3 2 2 4 5 5 5 4 3 3 2 2 1 1 1
0 0 0 0 0 0 0 0 0 0 0 0 0 0 0 1 1 2 2 2 2 3 3 3 3 3 3 3 3 3 3 3 4 5 5 5 5 5 4 3 2 1 1 1
0 0 0 0 0 0 0 0 0 0 0 0 0 0 0 1 1 2 2 2 3 3 3 3 3 3 3 3 3 3 4 4 6 6 6 6 7 6 5 3 2 1 1 1
0 0 0 0 0 0 0 0 0 0 0 0 0 0 1 1 2 2 2 3 3 4 4 4 4 4 4 4 4 5 5 6 6 6 7 7 7 5 4 3 2 2 2 2
0 0 0 0 0 0 0 0 0 0 0 0 0 1 1 1 2 2 3 3 3 4 5 5 5 5 5 5 6 7 7 6 6 6 7 6 5 3 2 2 2 2 2 2
0 0 0 0 0 0 0 1 1 1 1 1 1 1 1 1 2 2 3 3 3 3 5 5 5 5 6 6 7 7 7 6 5 6 5 4 3 2 2 2 3 3 3 2
0 0 0 0 0 0 1 1 1 1 1 1 2 2 2 2 2 2 2 3 3 3 4 5 5 6 6 6 6 6 6 5 5 4 4 3 2 2 2 2 3 3 3 3
0 0 0 0 0 1 1 1 1 1 1 2 2 2 2 2 2 3 3 3 4 4 4 5 5 6 7 6 6 5 5 5 4 3 2 2 2 2 2 2 2 3 2 2
1 1 1 1 1 1 1 2 2 2 2 2 3 3 3 3 3 4 4 4 5 5 5 5 5 6 7 6 5 5 5 4 3 2 1 1 1 1 1 1 2 2 2 2
1 1 1 1 1 1 2 2 2 2 3 3 3 3 3 3 3 4 4 4 6 7 6 6 5 6 6 6 5 5 5 3 2 1 1 1 1 1 1 1 1 1 2 2
1 1 1 2 2 2 2 2 2 3 3 3 3 3 3 3 3 3 4 5 6 7 7 7 6 6 7 7 6 6 5 3 2 1 1 0 0 1 1 1 1 1 1 1
1 1 1 2 2 2 2 2 2 3 3 3 3 3 3 2 3 3 4 5 6 7 7 7 8 8 8 8 7 6 4 3 2 1 0 0 0 0 0 1 1 1 1 1
1 1 1 2 2 2 2 2 2 2 3 3 3 3 2 2 3 4 4 5 5 6 6 7 8 8 9 8 7 5 4 3 2 1 0 0 0 0 0 0 0 0 1 1
Wind_Speed
7 9 9 6 5 3 3 4 3 2 2 3 3 2 2 4 6 7 8 9 10 10 10 10 10 10 10 10 10 10 11 10 9 7 7 7 7 6 6 6 6 6 6 6
8 11 5 3 4 5 6 6 5 3 1 3 3 3 2 3 4 5 7 8 9 10 10 10 10 10 10 10 11 11 11 11 10 8 6 5 5 5 5 5 5 7 7 7
11 3 6 8 8 8 8 7 3 1 2 4 6 7 6 5 5 5 6 7 9 10 10 11 11 10 10 10 11 9 10 10 10 8 6 4 3 4 4 5 6 7 7 8
10 6 8 10 10 8 7 3 3 4 7 4 4 5 5 5 6 7 7 8 9 9 10 10 10 10 10 9 9 9 9 9 9 8 8 8 6 6 6 5 5 6 7 7
9 9 10 11 9 9 2 2 4 5 6 7 6 8 2 5 5 6 7 7 8 9 9 10 10 10 9 8 8 8 8 8 8 8 8 7 6 5 4 4 5 5 5 6
5 6 8 8 6 7 5 6 4 6 8 9 4 7 3 2 1 1 4 6 7 8 9 10 9 9 8 8 8 8 7 7 7 8 8 8 7 6 5 5 5 5 4 5
10 10 8 7 10 10 10 9 7 9 8 6 3 6 2 2 1 2 1 4 7 9 10 10 10 10 9 9 8 8 8 7 7 7 7 7 7 7 7 6 6 5 5 5
13 13 13 12 12 10 14 14 9 7 6 5 6 6 1 2 1 1 2 5 8 10 10 10 10 10 9 9 9 8 8 7 7 7 6 6 6 5 4 6 5 6 5 5
11 9 10 10 10 9 12 13 11 8 6 6 4 3 4 3 3 3 4 7 9 10 11 11 10 10 10 9 9 8 7 7 6 6 6 5 5 5 5 5 5 5 4 4
6 7 10 10 9 7 8 10 7 9 7 9 6 6 3 4 3 4 6 8 9 10 11 10 10 10 9 9 9 8 7 6 6 6 5 4 4 4 3 3 3 3 4 4
9 8 9 11 13 14 11 11 10 9 8 8 5 2 3 2 2 3 6 7 9 10 11 11 10 10 10 9 9 8 7 6 6 5 4 4 3 3 3 2 3 3 3 3
11 9 9 11 6 5 13 14 13 10 8 8 8 2 6 2 2 3 5 7 8 9 10 10 11 10 10 9 8 8 7 7 6 5 5 4 3 3 2 2 2 2 2 3
10 8 10 10 10 9 12 13 14 14 10 9 10 4 7 4 3 4 6 7 8 10 10 11 10 10 9 8 8 7 7 7 6 6 5 4 3 3 2 2 2 1 2 2
8 9 12 11 8 13 15 14 14 14 10 11 12 9 5 5 4 5 7 8 9 10 11 11 10 9 9 8 7 7 7 6 6 6 5 5 4 3 2 2 1 1 1 2
8 11 12 11 5 7 12 14 15 16 15 13 10 10 8 4 4 5 7 9 10 11 11 11 10 10 9 9 8 7 7 6 6 6 5 5 4 3 2 2 2 2 1 1
6 8 10 12 10 10 11 12 13 15 14 13 11 9 2 1 3 6 8 9 10 11 11 11 10 10 9 9 8 8 7 6 6 5 5 5 4 4 3 3 3 2 2 1
8 7 9 11 10 11 14 12 12 12 11 12 11 6 1 3 4 6 7 8 9 10 10 10 10 10 9 9 8 8 7 7 6 5 4 4 4 4 3 3 3 3 2 2
7 8 7 8 9 14 6 4 9 11 10 9 6 2 1 1 2 3 5 7 8 8 9 9 9 9 9 8 8 8 8 7 6 5 5 4 4 4 3 3 4 3 3 3
6 7 8 8 12 10 5 4 6 9 8 6 6 3 2 3 5 5 4 5 7 7 8 8 8 9 9 9 9 9 8 7 6 5 5 4 4 4 4 4 4 3 3 4
7 7 9 9 11 11 6 5 2 6 7 2 2 3 4 5 6 4 6 6 6 7 8 8 9 9 9 9 9 9 8 7 7 6 5 5 4 4 4 5 4 4 4 4
10 9 11 11 11 6 5 3 5 9 1 3 1 2 4 3 3 6 7 7 7 8 9 9 9 9 9 9 9 9 8 7 6 6 6 5 5 5 6 5 5 5 5 5
9 9 10 10 12 6 4 3 3 4 5 3 1 1 2 4 6 8 8 9 9 9 10 10 9 9 8 8 9 9 8 7 7 7 7 6 6 5 5 6 5 5 5 6
5 3 3 4 1 5 2 2 4 4 3 3 1 1 4 6 7 8 9 9 9 9 9 9 10 10 8 7 8 9 8 8 8 7 7 7 7 6 5 6 6 5 4 4
4 1 3 3 2 2 1 2 2 3 2 2 0 2 5 7 8 8 8 8 9 9 9 9 10 10 8 7 8 8 8 8 8 8 7 6 6 7 7 5 5 5 4 4
2 4 5 5 2 2 3 3 4 3 2 2 3 4 6 8 9 9 8 8 8 8 8 8 8 9 9 8 8 8 7 8 8 8 7 7 7 7 8 8 7 6 7 5
5 5 6 3 1 1 2 3 3 2 3 4 5 6 7 8 9 9 8 8 8 8 8 8 9 9 9 9 9 8 7 7 8 7 7 6 6 6 7 8 9 15 12 14
Wind_Direction
192 219 215 205 236 279 249 244 210 116 40 270 247 237 163 168 191 189 184 181 184 187 179 180 184 185 184 187 190 194 196 192 192 192 196 201 205 206 207 210 204 209 219 215
197 218 206 173 197 226 228 230 208 157 100 277 255 233 174 181 201 203 196 187 184 178 173 177 181 183 188 189 190 192 197 194 197 196 199 207 213 212 209 213 204 213 215 216
217 145 168 190 195 211 221 239 237 234 229 215 251 214 179 172 192 196 202 197 189 183 179 179 182 184 189 190 192 192 195 194 198 196 194 192 198 217 210 209 207 213 214 217
222 163 187 202 203 218 210 214 243 242 249 210 261 264 162 175 197 199 199 197 193 185 180 177 178 182 188 188 188 192 193 195 193 193 198 198 207 212 216 217 211 212 214 218
198 191 198 211 206 216 201 156 220 240 251 256 220 270 164 163 209 194 191 194 190 182 175 175 177 176 178 181 182 185 187 189 189 194 201 209 219 225 219 215 213 218 216 221
187 188 216 219 196 201 166 179 191 229 241 242 236 268 255 163 233 194 167 181 182 177 171 169 168 165 168 173 176 176 180 186 188 195 203 211 219 222 217 216 214 218 214 218
195 198 198 206 187 186 205 211 210 213 219 230 150 253 277 52 11 310 220 174 171 170 167 165 164 164 167 169 170 170 176 183 186 194 205 213 220 223 221 223 218 221 215 212
196 197 193 200 210 195 210 223 235 243 233 192 180 243 227 80 334 275 197 165 162 163 163 164 163 163 164 163 165 168 175 180 182 191 202 210 219 225 223 225 223 219 220 213
205 195 174 197 213 223 203 225 247 254 259 257 217 230 239 182 182 161 150 152 156 158 161 161 159 160 159 160 162 166 169 176 181 185 189 198 211 221 224 220 222 219 215 211
211 194 173 175 190 217 247 218 215 238 237 243 223 234 235 169 151 148 154 158 153 155 158 156 156 156 154 155 155 160 165 170 171 177 184 181 189 202 214 212 206 212 214 218
218 206 170 183 203 192 194 208 220 231 243 253 239 202 111 159 145 162 160 157 154 158 158 155 155 153 150 149 151 155 157 159 161 166 167 165 167 178 184 190 198 201 208 210
211 222 204 195 180 244 211 212 209 218 219 244 269 206 113 153 173 161 156 150 150 154 155 154 152 150 150 150 152 154 155 155 155 153 155 156 157 162 171 171 188 197 204 214
188 211 204 195 194 201 222 221 222 230 231 230 243 222 129 168 184 167 159 154 153 156 155 154 154 154 153 152 152 152 154 150 149 147 149 144 151 152 158 162 177 190 197 211
204 216 227 222 208 192 205 210 219 224 228 229 238 256 196 202 194 175 164 164 163 161 160 160 158 156 154 152 152 153 152 149 147 146 146 143 145 148 158 167 165 169 190 204
213 218 227 248 241 212 210 209 210 223 237 246 240 244 253 246 212 182 171 167 167 166 166 164 161 154 155 154 154 152 148 146 147 149 146 143 143 145 148 138 133 137 161 184
216 231 220 227 225 228 229 221 216 224 235 242 251 250 272 226 168 170 174 174 174 171 168 164 158 155 157 155 155 151 149 147 148 149 143 140 143 142 135 128 123 122 121 110
197 214 216 217 207 217 222 218 216 217 224 233 236 239 194 198 185 180 179 180 176 170 166 163 160 158 157 156 154 153 148 144 143 142 138 138 140 133 129 128 121 113 106 97
209 216 222 215 195 222 208 201 226 227 228 234 250 265 239 215 165 163 178 176 168 164 161 160 158 154 152 148 145 142 137 139 140 139 135 135 129 120 116 110 101 97 95 92
218 218 226 221 214 213 175 181 212 220 217 225 236 227 184 146 155 140 143 158 161 156 150 150 152 148 142 140 137 134 133 134 131 127 125 121 118 112 107 100 94 91 93 90
189 222 231 222 230 219 177 144 194 233 210 167 234 215 184 193 217 137 124 136 139 136 135 138 137 135 133 134 136 134 131 128 125 120 115 112 112 112 106 99 97 94 92 89
184 201 222 222 228 216 84 113 193 219 157 53 342 210 196 207 16 99 119 123 125 126 129 131 130 127 126 128 131 129 123 118 115 115 112 106 106 106 102 97 93 96 95 90
205 202 209 222 231 205 82 188 224 15 9 5 27 131 143 107 105 115 116 119 122 125 127 129 125 119 118 125 126 121 115 111 110 109 106 101 98 98 101 99 93 93 98 99
236 287 250 246 274 61 74 23 12 346 333 339 360 85 134 132 125 119 117 120 120 122 122 124 123 118 114 116 120 119 115 116 113 110 106 103 99 93 94 97 97 94 88 89
174 246 254 237 170 94 58 33 6 347 328 328 77 136 143 133 127 122 120 119 119 120 122 123 123 117 110 107 107 109 113 116 115 112 108 105 101 97 86 75 71 73 71 81
196 206 223 230 212 188 114 48 28 29 42 84 107 122 129 130 126 123 119 116 117 120 121 121 120 117 113 109 105 107 112 116 115 113 109 104 98 94 85 71 53 59 52 42
215 229 239 239 130 265 70 36 24 49 75 97 112 114 116 124 125 123 119 118 121 119 119 118 118 117 116 113 108 106 109 117 120 115 111 108 108 107 108 103 86 59 63 58